Flag for U.S.A. Weather past 2 weeks in Decatur, Illinois, U.S.A.

Now
88 °F

Sunny.


Feels Like: 99 °F
Forecast: 71 / 86 °F
Wind: 14 mph from Southwest

Location: Decatur Airport

Current Time: Aug 21, 2014 at 3:18:49 PM

Latest Report: Aug 21, 2014 at 2:54 PM


Visibility: 10 mi

Pressure: 29.94 "Hg

Humidity: 67%

Dew point: 76 °F

Location of DecaturLocation

Historic Weather in Decatur — Graph

°F

Decatur temperature yesterday

Maximum temperature yesterday: 81 °F (at 4:54 PM)
Minimum temperature yesterday: 68 °F (at 5:54 AM)
Average temperature yesterday: 74 °F

Past Weeks' High & Low Weather Summary

 TemperatureHumidityPressure
High87 °F (Aug 21, 12:54 PM)100% (Aug 18, 3:54 AM)30.10 "Hg (Aug 18, 3:54 AM)
Low55 °F (Aug 15, 3:54 AM)45% (Aug 13, 11:54 AM)29.76 "Hg (Aug 19, 6:54 PM)
Average71 °F81%29.95 "Hg
* Reported Aug 6 1:54 PM — Aug 21 1:54 PM, Decatur, Weather by CustomWeather, © 2014

Note: Actual official high and low records may vary slightly from our data, if they occured in-between our weather recording intervals... More about our weather records

Advertising

Decatur weather history for previous 24 hours

 ConditionsComfort  
Time TempWeatherWind HumidityBarometerVisibility
1:54 PM
Aug 21
87 °FSunny.13 mph67%29.96 "Hg10 mi
12:54 PM87 °FSunny.14 mph65%29.96 "Hg10 mi
11:54 AM85 °FSunny.14 mph68%29.98 "Hg10 mi
10:54 AM83 °FSunny.12 mph70%29.99 "Hg10 mi
9:54 AM82 °FSunny.17 mph72%29.98 "Hg10 mi
8:54 AM79 °FSunny.10 mph77%29.98 "Hg10 mi
7:54 AM76 °FSunny.7 mph88%29.97 "Hg10 mi
6:54 AM75 °FClear.9 mph88%29.94 "Hg10 mi
5:54 AM75 °FPassing clouds.10 mph88%29.94 "Hg10 mi
4:54 AM74 °FPassing clouds.13 mph91%29.93 "Hg10 mi
3:54 AM74 °FClear.14 mph88%29.93 "Hg10 mi
2:54 AM73 °FClear.8 mph84%29.93 "Hg10 mi
1:54 AM74 °FOvercast.8 mph82%29.95 "Hg10 mi
12:54 AM73 °FClear.10 mph90%29.96 "Hg10 mi
11:54 PM
Aug 20
75 °FClear.10 mph82%29.95 "Hg10 mi
10:54 PM74 °FClear.13 mph85%29.97 "Hg10 mi
9:54 PM74 °FClear.10 mph88%29.96 "Hg10 mi
8:54 PM73 °FClear.7 mph90%29.95 "Hg10 mi
7:54 PM75 °FSunny.5 mph88%29.92 "Hg10 mi
6:54 PM78 °FSunny.7 mph79%29.92 "Hg10 mi
5:54 PM80 °FSunny.8 mph71%29.93 "Hg10 mi
4:54 PM81 °FSunny.12 mph67%29.93 "Hg10 mi
3:54 PM78 °FSunny.12 mph74%29.94 "Hg10 mi
Weather by CustomWeather, © 2014

See weather overviewHow to use our weather pages